Location: Leipzig
(51.3392°N, 12.3528°E)
Time: 22:54:44
(UTC+01:00)

ISS - Pass Details

Date: 04 January 2018
Orbit: 402 x 407 km, 51.6° (Epoch: 18 January)

Event Time Altitude Azimuth Distance (km) Brightness Sun altitude
Exits shadow 05:20:59 27° 91° (E) 817 -1.7 -25.9°
Drops below altitude 10° 05:22:42 10° 81° (E) 1,471 0.0 -25.7°
Sets 05:24:48 0° 77° (ENE) 2,335 1.2 -25.3°
